Location: Lancaster
(34.6980°N, 118.1360°W)
Time: 10:14:33
(UTC-07:00)

Vanguard 3 - Visible Passes

Search period start: 18 June 2018 00:00
Search period end: 28 June 2018 00:00
Orbit: 508 x 3264 km, 33.3° (Epoch: 17 June)

Date Brightness Start Highest point End Pass type
(mag) Time Alt. Az. Time Alt. Az. Time Alt. Az.
18 Jun 8.2 04:06:38 24° SW 04:10:16 53° SSE 04:20:04 10° E visible
19 Jun 8.4 02:56:54 30° SE 02:56:54 30° SE 03:03:23 10° E visible
19 Jun 8.3 05:01:59 10° WSW 05:08:23 77° SSE 05:20:12 10° E visible
20 Jun 7.8 03:51:43 31° SW 03:54:24 57° SSE 04:03:22 10° E visible
21 Jun 8.3 02:41:58 31° SE 02:41:58 31° SE 02:47:05 10° E visible
21 Jun 8.0 04:46:37 10° WSW 04:52:31 79° S 05:03:19 10° E visible
22 Jun 7.4 03:36:47 40° SW 03:38:37 61° SSE 03:46:45 10° E visible
23 Jun 8.4 02:27:03 28° ESE 02:27:03 28° ESE 02:30:51 10° E visible
23 Jun 7.7 04:31:37 12° W 04:36:43 80° S 04:46:32 10° E visible
24 Jun 7.0 03:21:54 53° SW 03:22:54 66° SSE 03:30:16 10° E visible
25 Jun 8.7 02:12:12 22° E 02:12:12 22° E 02:14:44 10° E visible
25 Jun 7.5 04:16:46 16° W 04:20:59 81° S 04:29:51 10° E visible
26 Jun 6.8 03:07:05 69° S 03:07:17 70° SSE 03:13:54 10° E visible
27 Jun 9.0 01:57:26 16° E 01:57:26 16° E 01:58:43 10° E visible
27 Jun 7.2 04:02:01 21° W 04:05:20 80° S 04:13:17 10° E visible
